RH
10 11 11 11 11 12 12 12 12 12 13 14 15 17 20 24 27 28 28 30 33 35 35 35 35 34 32 29 26 24 22 21 20 20 21 21 21 21 21 21 22 22 22 19 16 16 17 16 16 15 14 13
9 9 9 9 9 9 9 10 10 10 11 11 12 13 14 15 17 19 20 22 25 28 30 32 32 32 32 31 29 28 26 24 22 21 20 20 20 20 20 20 20 20 20 18 16 15 16 17 16 15 14 13
8 8 8 8 8 8 8 8 8 8 8 9 9 10 10 11 12 13 14 15 17 20 23 25 27 28 29 28 28 28 27 25 24 23 22 21 20 19 20 19 19 19 19 17 15 14 14 15 16 15 14 12
6 7 7 7 8 8 8 8 8 8 8 8 8 8 8 9 9 9 10 11 12 13 16 18 20 22 24 24 25 25 25 24 23 22 22 22 22 20 20 20 20 19 19 18 16 14 13 13 14 14 13 13
8 7 6 6 6 7 6 7 7 7 7 7 7 7 7 7 8 8 8 9 9 10 11 13 14 16 18 19 20 21 21 22 21 20 20 21 22 22 20 20 20 20 20 19 17 16 15 14 13 13 12 12
12 11 9 8 7 7 7 7 7 7 6 6 6 6 6 6 7 7 7 7 8 8 8 9 10 11 13 14 15 17 17 17 18 19 19 19 20 22 21 21 21 21 21 20 19 18 17 15 15 14 12 12
17 16 15 13 12 11 11 11 10 10 9 8 8 7 7 6 6 6 6 6 6 7 7 8 8 8 9 10 11 12 13 13 14 16 17 16 17 19 20 20 21 21 21 21 21 20 18 16 16 16 14 13
19 19 19 18 17 16 15 15 14 14 13 13 12 11 10 9 8 7 6 6 5 6 6 6 7 7 8 8 9 9 10 11 11 12 13 13 13 15 17 17 19 20 21 21 21 20 19 16 16 17 17 15
20 20 20 19 19 18 18 17 17 17 16 16 15 14 14 13 12 11 9 8 7 6 6 6 6 6 6 7 7 7 8 8 9 10 10 10 10 11 13 14 15 17 18 20 20 20 19 16 15 17 18 18
21 20 20 20 19 18 18 18 17 17 17 16 16 16 15 15 14 14 13 12 10 9 8 7 6 6 6 5 6 6 6 7 7 8 8 9 9 9 10 11 12 14 15 16 17 17 17 14 13 14 16 18
22 21 21 20 20 19 18 18 17 16 16 16 16 16 15 15 15 14 14 14 13 12 11 10 9 8 7 7 6 6 6 6 6 6 7 7 8 8 8 9 10 11 12 13 13 14 14 13 11 11 13 16
24 23 23 22 21 20 20 19 19 18 17 17 16 16 15 15 15 14 14 14 13 13 13 12 11 10 10 9 8 7 7 6 6 6 6 6 7 7 7 8 8 8 9 9 10 10 11 11 10 9 10 12
27 26 25 25 24 23 22 22 21 20 20 19 19 18 17 17 16 15 14 14 14 14 13 13 13 12 11 11 10 10 9 8 7 6 6 6 6 6 6 7 7 7 8 8 8 8 9 9 9 8 8 9
34 32 31 30 29 27 26 25 24 24 23 22 21 21 20 19 19 18 17 16 15 14 14 14 13 13 13 12 11 11 10 10 9 8 7 6 6 6 6 6 6 7 7 7 7 7 8 8 8 8 8 7
43 40 38 36 35 34 32 31 30 28 27 26 25 24 23 22 21 21 20 19 18 17 16 15 14 14 14 13 13 12 11 11 10 10 9 8 7 7 6 6 6 6 6 7 7 7 7 7 7 8 8 8
49 46 44 42 40 39 38 37 36 34 32 31 29 28 27 25 24 23 22 21 20 19 18 17 16 16 15 15 14 13 13 12 12 11 10 10 9 9 8 7 6 5 5 5 6 6 6 7 7 7 7 8
52 50 48 46 45 43 43 42 40 39 38 36 35 33 32 30 28 27 25 24 23 22 21 19 18 18 17 16 16 15 15 14 13 13 12 11 10 10 9 8 7 6 6 5 5 5 6 6 6 6 6 7
59 56 53 51 50 48 46 46 44 43 42 41 39 38 37 35 33 32 30 28 26 25 23 22 21 20 19 18 17 16 16 16 15 14 14 13 12 11 11 10 9 8 7 6 6 5 5 5 6 6 6 6
69 65 61 58 55 53 51 50 48 47 46 44 43 42 41 39 38 37 35 34 32 30 28 26 24 23 21 20 19 18 17 17 17 16 16 15 14 14 13 12 11 10 9 8 7 6 6 6 5 6 6 6
84 78 72 67 64 61 59 56 55 52 50 49 47 46 44 43 42 41 40 38 37 36 34 32 30 28 26 24 22 20 19 18 18 17 17 17 16 15 14 14 13 12 11 10 9 8 7 6 6 6 6 6
98 95 90 85 80 75 71 67 64 62 59 57 55 53 50 48 47 45 43 42 41 40 39 38 36 34 32 30 28 25 23 21 20 19 18 18 17 17 16 15 15 14 13 12 11 10 9 8 7 6 6 6
100 101 100 99 97 94 90 86 81 76 72 69 65 63 60 57 55 52 50 48 46 44 42 41 40 39 38 36 34 32 30 27 25 23 21 20 19 18 18 18 17 15 15 14 13 13 11 10 9 8 7 7
99 100 100 100 101 101 101 99 97 94 90 86 81 76 71 68 64 61 59 56 54 51 49 46 44 42 41 39 38 37 35 33 31 29 26 24 22 21 20 19 19 18 16 15 14 14 13 13 11 10 9 8
100 100 100 100 100 100 100 101 101 101 100 99 97 94 89 83 78 74 71 68 64 61 58 54 51 48 46 43 41 39 37 36 34 33 31 30 27 25 24 22 21 20 19 17 16 15 14 14 14 12 11 10
98 99 100 100 100 100 100 100 100 100 100 100 101 102 101 100 96 91 88 85 80 74 69 64 60 57 53 50 47 44 41 39 37 35 34 32 31 30 28 26 25 23 22 21 19 18 17 16 15 15 14 12
86 89 92 93 95 97 98 99 100 101 100 100 100 100 102 104 104 100 99 99 96 90 84 78 72 65 60 57 55 52 49 46 43 40 37 35 33 31 30 29 28 27 25 24 23 22 20 19 17 17 16 15
74 76 78 79 81 82 85 88 92 96 98 99 100 101 101 102 103 101 100 102 102 99 96 93 86 78 70 64 60 58 56 54 51 48 44 41 38 35 32 30 29 28 27 26 25 25 24 22 21 19 18 17
68 70 71 71 70 69 69 71 75 80 84 89 92 95 96 97 98 99 99 100 100 99 97 96 93 88 80 73 67 63 61 59 57 56 53 50 46 43 39 35 32 30 29 27 26 25 25 25 24 22 21 19
65 64 64 64 63 60 58 58 60 64 67 70 74 77 81 83 85 87 90 93 95 94 93 91 90 87 84 80 76 72 67 63 61 60 59 57 54 50 47 44 40 36 33 31 28 26 24 24 24 24 23 22
73 66 60 56 54 51 48 48 50 51 51 52 53 56 59 62 65 68 71 75 79 82 84 84 83 82 81 81 79 77 73 68 64 62 61 60 59 56 53 50 48 45 42 39 36 32 28 25 25 24 23 23
73 66 57 51 46 41 38 37 38 38 38 38 39 39 40 41 44 47 50 54 58 61 66 70 72 73 74 75 75 74 72 70 67 65 62 61 59 58 57 55 52 50 49 47 44 41 36 32 29 27 25 24
Wind_Speed
55 55 56 56 57 58 59 59 59 60 60 61 63 65 66 66 65 63 62 63 64 65 65 66 65 65 65 65 64 64 64 63 63 64 63 63 63 63 63 62 62 61 59 56 53 53 55 56 56 57 57 55
54 54 54 54 55 55 57 57 58 59 59 60 61 63 65 66 65 64 64 63 63 65 66 66 67 67 67 67 67 66 65 65 65 65 65 65 64 64 64 64 63 62 61 57 54 54 55 57 57 58 58 56
55 55 55 55 55 55 56 56 56 57 58 59 60 61 63 64 63 63 64 63 63 64 65 66 67 67 68 68 68 67 67 66 66 66 67 66 66 65 65 65 65 64 62 59 56 55 56 57 58 59 59 57
57 56 56 56 56 56 56 57 57 58 58 59 59 60 61 62 62 62 63 64 64 64 65 65 66 67 68 68 68 68 68 67 67 67 67 68 67 67 67 67 67 66 65 62 57 55 56 57 58 59 60 59
60 59 59 58 58 58 57 58 58 58 59 59 60 60 61 62 62 62 62 63 63 64 65 64 65 66 66 67 68 68 68 68 68 68 67 68 68 68 68 68 68 67 67 65 60 57 56 57 58 59 60 60
63 62 62 61 61 60 59 59 59 59 59 59 60 60 61 61 62 62 63 63 63 63 64 64 63 64 65 66 67 67 67 67 68 68 68 68 69 69 69 69 69 68 68 68 65 60 57 57 58 60 60 61
64 64 64 63 63 63 62 62 62 62 62 61 61 61 62 62 62 63 63 63 63 63 63 64 64 64 64 64 65 66 66 66 67 68 68 67 67 69 69 70 69 69 69 69 68 64 59 57 58 60 61 61
64 64 64 64 64 64 64 64 64 64 64 64 64 64 64 64 64 64 65 65 64 64 63 64 64 65 65 64 64 64 65 66 66 67 67 66 66 67 69 69 70 70 70 69 69 66 61 59 60 61 62 62
64 64 64 64 64 64 64 65 65 65 65 66 66 66 66 66 66 67 67 67 67 66 65 65 64 65 65 65 65 65 65 65 65 66 66 66 66 67 68 69 69 69 70 69 69 67 63 60 60 62 63 64
64 64 64 64 64 64 64 65 65 65 66 66 66 67 67 68 68 68 68 68 69 69 69 68 67 66 66 66 66 66 66 66 66 66 66 67 66 67 68 68 69 69 70 70 69 68 64 60 60 62 64 65
64 64 65 65 65 65 65 65 65 65 66 66 67 67 67 68 69 69 69 69 70 70 71 71 70 69 68 67 67 68 68 67 67 67 67 67 67 67 67 68 68 68 69 69 69 68 65 62 60 61 63 65
65 65 65 66 66 66 67 67 67 67 67 67 67 68 68 68 69 69 70 70 70 71 71 72 71 71 70 69 69 69 69 69 69 68 68 68 68 68 68 68 68 68 68 68 68 67 66 64 61 60 62 65
66 66 67 67 68 68 68 69 69 69 69 69 69 69 69 69 70 70 70 70 71 71 72 72 72 72 71 70 70 70 70 71 70 70 69 69 69 69 68 68 68 69 68 68 67 66 65 64 63 61 61 64
68 68 68 69 69 70 70 71 71 72 72 72 72 72 72 72 71 71 72 72 72 72 73 73 73 73 72 71 70 70 71 71 71 71 72 71 71 70 70 69 69 70 69 69 68 67 66 64 64 63 61 62
69 70 70 70 70 71 71 72 73 73 74 74 74 74 75 74 74 74 74 74 74 74 74 75 74 74 74 73 72 71 71 72 72 72 72 73 72 72 72 72 72 71 71 71 70 68 67 66 65 65 63 63
71 72 72 72 72 72 72 73 73 74 74 75 75 76 76 76 77 77 76 76 76 76 76 76 76 76 76 76 75 74 73 73 73 73 73 73 73 73 74 74 73 73 73 72 71 70 69 68 67 66 65 65
72 73 74 75 75 76 75 75 75 76 76 77 77 78 78 78 78 79 79 79 79 79 78 78 78 78 78 78 77 76 75 75 75 75 75 74 74 74 74 75 75 75 74 73 72 71 70 70 69 68 68 67
73 74 76 77 78 79 79 80 80 80 80 80 80 81 81 81 81 81 81 81 81 81 81 81 81 81 80 80 80 79 78 77 77 77 77 77 76 75 75 75 76 76 76 75 74 73 72 71 70 70 69 68
75 76 77 78 80 81 82 83 83 84 84 84 84 84 84 84 84 84 84 84 84 83 83 83 83 83 83 82 82 82 81 80 79 79 78 79 79 78 77 76 76 76 76 76 76 75 74 73 72 71 71 70
76 78 79 80 81 82 83 84 85 85 85 86 86 86 86 86 86 86 86 86 86 86 85 85 85 85 85 85 84 84 84 83 82 81 81 80 80 80 80 79 78 77 77 77 76 76 75 74 74 73 73 72
76 79 80 81 82 82 83 84 85 86 86 87 87 88 88 88 88 88 88 88 88 88 88 87 87 87 87 87 86 86 86 85 85 84 84 83 83 82 82 82 81 80 79 78 77 77 76 75 74 74 74 73
74 77 80 82 83 83 84 84 85 86 87 88 88 89 90 90 90 90 90 90 90 90 90 90 89 89 89 88 88 88 88 87 87 87 86 86 85 85 84 83 83 83 82 81 80 79 77 77 76 75 75 74
74 76 78 81 83 84 85 85 85 86 87 88 89 90 91 92 92 92 92 92 92 92 92 92 91 91 91 90 90 89 89 88 88 88 88 88 87 87 86 85 85 85 85 84 83 82 80 79 78 78 77 76
80 81 81 82 83 85 86 87 87 86 86 87 88 90 91 92 93 93 93 94 94 94 94 94 94 93 92 92 92 91 90 90 89 89 89 89 89 89 88 87 87 86 87 86 85 84 83 82 81 81 80 79
83 84 86 87 87 88 88 89 90 90 89 89 89 90 91 92 93 93 93 94 95 96 96 97 97 96 95 94 93 93 92 92 91 91 90 90 90 90 90 90 89 89 89 88 86 86 86 85 84 84 83 82
82 84 86 88 90 91 91 92 92 93 93 93 92 92 93 94 95 95 94 94 96 96 97 98 99 99 98 97 96 95 94 93 93 92 92 92 92 91 91 91 91 91 91 90 89 88 88 87 86 86 86 85
83 84 85 86 88 90 92 93 94 95 95 95 96 96 96 97 97 97 97 97 98 99 99 99 99 100 100 100 99 98 97 96 95 94 94 95 94 94 93 92 92 93 93 93 92 91 90 89 88 88 88 87
85 86 86 87 88 89 90 91 92 93 94 95 97 97 98 99 100 100 99 100 101 102 102 102 101 102 102 102 101 101 100 99 98 97 97 97 97 97 96 95 94 94 94 94 94 93 92 92 91 91 90 88
86 88 90 91 92 93 93 92 91 92 93 94 96 97 99 100 101 102 101 101 102 103 104 104 104 104 104 103 103 103 103 102 102 101 100 99 99 99 99 98 98 97 96 95 96 96 94 94 94 93 92 90
87 89 91 93 95 96 96 95 94 95 96 96 96 97 99 100 102 103 102 102 103 104 105 105 105 105 105 104 104 104 104 104 103 103 103 102 102 101 101 101 101 100 99 98 98 98 97 96 95 95 94 94
89 90 92 93 95 96 96 97 97 99 100 100 100 99 100 101 103 104 104 104 104 105 105 106 106 105 105 105 105 105 105 104 104 104 104 104 104 104 103 103 102 102 102 101 101 101 100 99 98 96 96 96
Wind_Direction
260 259 258 257 257 256 256 256 255 254 254 254 255 255 255 254 253 253 252 252 251 251 251 251 250 250 249 248 248 249 249 250 250 250 250 250 250 250 250 249 249 247 245 244 244 244 244 244 245 245 245 246
258 258 257 257 256 256 256 255 255 254 254 253 254 255 254 254 253 253 252 251 251 250 250 250 250 250 250 249 248 248 248 249 249 250 250 250 250 250 250 250 249 248 247 245 245 244 245 244 245 245 245 245
259 258 257 256 256 255 255 255 255 254 254 253 253 254 254 254 253 252 252 251 250 249 249 249 249 250 250 250 249 249 248 248 249 249 249 249 249 249 250 250 250 249 248 246 245 245 245 245 244 245 245 245
261 260 259 258 257 256 255 255 254 254 254 254 253 253 254 254 253 252 252 251 250 249 248 248 248 248 248 249 249 249 249 248 248 248 249 249 249 249 249 249 249 249 249 247 245 245 245 245 245 245 245 245
262 262 261 260 259 258 257 256 255 255 254 254 254 254 253 253 253 252 252 251 251 250 249 248 248 247 247 247 248 248 248 248 248 247 247 248 248 249 249 249 249 249 249 248 246 245 245 245 245 245 245 245
262 261 261 260 260 259 258 258 257 256 255 255 254 254 254 253 253 252 252 251 251 251 250 249 248 248 247 247 247 247 247 247 247 247 247 247 248 248 249 249 248 248 248 248 247 245 245 245 245 245 245 245
261 261 260 260 259 259 259 258 258 257 257 256 255 255 254 254 253 253 252 251 251 250 250 250 249 249 248 248 247 247 247 246 246 247 247 246 247 247 248 248 248 248 248 248 247 246 244 245 244 244 245 245
261 260 260 259 259 258 258 258 257 257 257 257 256 256 255 254 254 253 252 252 251 250 250 249 249 249 249 248 248 247 246 246 246 246 246 246 245 246 246 247 248 248 248 248 248 247 244 244 244 244 244 245
261 261 260 259 259 258 257 256 256 256 256 255 255 255 255 255 254 254 253 253 252 251 250 249 249 248 248 248 248 248 247 246 246 246 246 245 245 245 244 245 246 246 247 247 247 247 245 244 244 244 244 244
262 261 260 260 259 258 257 256 255 255 254 254 254 254 254 254 254 254 253 253 252 252 251 250 249 248 248 248 248 248 247 246 245 245 245 245 245 245 244 244 245 245 245 246 246 247 246 244 244 244 244 244
262 261 260 259 259 258 257 256 255 254 253 253 252 252 252 252 252 253 253 252 252 252 252 251 250 249 248 248 248 248 247 247 246 245 244 244 244 245 244 244 244 244 245 245 245 246 245 244 244 244 244 244
261 260 260 259 258 258 257 257 256 255 254 253 252 251 250 250 250 251 251 251 251 251 251 251 251 250 249 248 248 247 247 247 247 247 246 244 244 244 244 244 244 244 244 245 245 245 245 244 244 245 245 244
260 259 259 258 257 257 256 256 255 255 254 253 252 251 250 250 249 249 249 249 250 250 250 251 251 250 250 249 248 248 248 248 248 247 247 246 245 244 244 244 244 243 243 244 244 245 245 244 243 244 245 245
259 258 258 257 256 255 255 255 254 254 254 253 252 252 251 250 249 249 248 248 248 249 249 249 250 250 250 249 249 249 249 248 248 248 248 247 247 246 245 244 243 244 243 243 243 244 244 244 244 244 244 246
258 257 256 255 254 254 253 252 252 252 252 252 252 251 251 250 250 249 248 248 248 248 248 248 248 249 249 249 248 248 248 248 248 248 248 248 248 247 246 245 245 244 244 243 243 243 243 243 244 244 244 245
255 255 254 254 253 252 251 251 250 250 249 249 250 250 250 250 249 249 249 248 248 247 247 248 248 248 248 248 248 248 248 248 248 248 247 248 248 248 248 247 247 246 245 244 243 242 242 242 243 243 244 244
253 253 253 253 252 251 251 250 249 249 248 248 248 248 248 248 248 248 248 248 248 247 247 247 247 247 247 247 248 248 247 248 248 248 248 247 247 248 248 248 248 247 246 245 244 243 242 242 242 242 243 243
252 252 252 252 252 252 251 250 250 249 249 248 248 248 248 248 247 247 248 248 248 247 247 247 247 247 247 247 247 247 247 247 247 248 249 248 247 247 247 248 248 248 248 247 245 244 243 242 241 241 242 243
251 250 250 250 251 251 252 251 251 250 250 250 249 249 248 248 248 248 248 248 248 248 248 248 247 247 247 247 247 247 247 246 246 247 248 248 249 248 247 247 247 248 248 248 247 245 244 243 242 242 242 242
251 250 249 249 250 250 251 251 251 251 251 250 250 249 249 249 248 248 248 248 248 248 248 248 248 248 248 248 247 247 247 247 246 246 246 247 248 248 248 248 247 247 248 248 248 247 246 245 243 243 242 242
251 250 249 249 249 249 249 250 250 251 251 251 251 250 250 250 249 249 248 248 249 249 248 248 248 248 248 248 248 248 247 247 247 246 246 246 246 247 248 248 248 247 247 247 248 248 247 246 245 244 243 242
250 249 248 248 248 248 248 249 249 250 250 250 251 251 251 250 250 250 249 249 249 249 249 248 248 248 248 248 248 248 248 248 248 247 247 247 246 246 247 247 248 248 248 247 247 247 248 247 247 245 244 243
252 250 249 248 248 247 247 248 248 249 249 250 250 250 251 251 251 251 250 250 250 249 249 248 248 247 247 247 247 247 248 248 248 248 248 247 247 247 247 246 247 248 248 247 247 247 247 247 247 247 246 245
256 254 252 250 249 248 248 247 248 248 249 249 249 250 250 250 250 250 251 250 250 250 249 249 248 247 247 247 247 247 247 247 247 247 247 247 247 247 247 247 247 247 247 247 247 247 246 246 246 247 247 246
259 257 256 254 252 251 249 249 248 248 248 249 249 249 249 249 249 250 250 251 251 251 250 250 249 248 247 246 246 247 247 247 247 247 247 247 247 247 247 247 247 247 247 247 247 247 246 246 245 246 246 246
262 260 258 257 255 253 252 251 250 249 249 249 249 250 250 250 249 249 249 250 251 251 251 251 250 249 248 247 246 246 246 246 247 247 247 247 247 247 247 247 247 247 247 247 247 247 247 246 246 246 246 246
266 265 263 261 258 256 254 253 252 252 251 251 251 251 251 251 251 250 250 250 251 251 251 251 251 251 250 249 248 247 246 246 246 246 247 247 247 246 246 246 246 247 247 247 247 247 247 247 246 246 246 246
267 266 266 265 263 260 258 255 254 254 253 253 253 253 253 252 252 251 251 251 251 251 251 251 251 251 251 251 250 249 248 247 246 246 246 246 246 246 246 246 246 246 246 247 247 247 247 247 247 246 246 246
268 267 265 265 264 263 261 259 258 257 256 255 255 254 254 254 253 252 252 252 252 252 251 251 251 251 251 251 251 250 249 249 248 247 246 245 245 246 246 246 245 245 245 246 246 246 246 246 247 247 246 245
272 270 268 266 265 264 263 262 261 260 259 258 257 257 256 255 254 253 252 252 252 252 251 251 250 250 250 250 250 250 250 249 249 248 247 247 246 245 245 246 246 246 245 245 245 246 246 245 245 246 246 246
272 272 271 270 269 268 267 265 264 263 262 260 259 259 259 258 257 255 254 252 252 252 251 251 250 250 250 250 249 249 249 249 249 249 248 247 247 246 245 245 245 245 245 245 245 245 246 245 245 245 245 246